Location: Владивосток
(43.1151°N, 131.8856°E)
Time: 17:49:35
(UTC+10:00)

DUCHIFAT 1 - Pass Details

Date: 05 July 2022
Orbit: 580 x 596 km, 98.0° (Epoch: 09 August)

Event Time Altitude Azimuth Distance (km) Brightness Sun altitude
Rises 03:16:40 0° 21° (NNE) 2,846 ? -18.5°
Reaches altitude 10° 03:18:58 10° 30° (NNE) 1,941 ? -18.3°
Maximum altitude 03:22:53 37° 98° (E) 935 ? -18.0°
Enters shadow 03:25:21 19° 155° (SSE) 1,421 ? -17.7°
